Mountain Home Air Force Base, ID

3:30 PM MST on February 07, 2016 (GMT -0700)
Mountain Home Air Force Base

Weather History for KMUO - August, 2014

Change the Weather History Date:

Tuesday, August 19, 2014

  Actual Average Record
Temperature  
Mean Temperature 78 °F 74 °F  
Max Temperature 94 °F 92 °F 105 °F (1953)
Min Temperature 62 °F 55 °F 30 °F (1916)
Degree Days  
Heating Degree Days 0 0  
Month to date heating degree days 0 0  
Cooling Degree Days 13 10  
Month to date cooling degree days 225 218  
Growing Degree Days 28 (Base 50)    
Moisture  
Dew Point 44 °F    
Average Humidity 32    
Maximum Humidity 58    
Minimum Humidity 14    
Precipitation  
Precipitation 0.00 in 0.01 in 0.25 in (1979)
Month to date precipitation 0.45 0.08  
Sea Level Pressure  
Sea Level Pressure 29.68 in    
Wind  
Wind Speed 8 mph (West)    
Max Wind Speed 24 mph    
Max Gust Speed 32 mph    
Visibility 10 miles    
Events Rain , Thunderstorm    
T = Trace of Precipitation, MM = Missing Value Source: NWS Daily Summary

Daily Weather History Graph

Daily Weather History Graph

Search for Another Location

Airport or City:

Trip Planner

Search our weather history database for the weather conditions in past years. The results will help you decide how hot, cold, wet, or windy it might be!

Date:

Astronomy

Aug. 19, 2014 Rise Set
Actual Time 6:53 AM MDT 8:39 PM MDT
Civil Twilight 6:23 AM MDT 9:09 PM MDT
Nautical Twilight 5:46 AM MDT 9:46 PM MDT
Astronomical Twilight 5:06 AM MDT 10:26 PM MDT
Moon 1:46 AM MDT (8/19) 4:42 PM MDT (8/19)
Length of Visible Light 14h 46m
Length of Day
13h 45m
Waning Crescent, 28% of the Moon is Illuminated
Aug 19
Waning Crescent
Aug 25
New
Sep 2
First Quarter
Sep 8
Full
Sep 15
Last Quarter

Hourly Weather History & Observations

Time (MDT) Temp. Dew Point Humidity Pressure Visibility Wind Dir Wind Speed Gust Speed Precip Events Conditions
12:58 AM 71.4 °F 46.9 °F 42% 29.70 in 10.0 mi SW 8.1 mph - N/A   Clear
1:58 AM 71.4 °F 46.9 °F 42% 29.69 in 10.0 mi East 11.5 mph - N/A   Overcast
2:58 AM 68.5 °F 45.9 °F 44% 29.70 in 10.0 mi SE 9.2 mph - N/A   Mostly Cloudy
3:58 AM 68.4 °F 45.5 °F 44% 29.70 in 10.0 mi East 3.5 mph - N/A   Mostly Cloudy
4:58 AM 65.8 °F 48.6 °F 54% 29.71 in 10.0 mi North 2.3 mph - N/A   Mostly Cloudy
5:58 AM 66.4 °F 47.8 °F 51% 29.71 in 10.0 mi East 4.6 mph - N/A   Clear
6:58 AM 64.2 °F 46.8 °F 53% 29.71 in 10.0 mi SE 3.5 mph - N/A   Clear
7:58 AM 62.6 °F 47.5 °F 58% 29.72 in 10.0 mi NNE 2.3 mph - N/A   Partly Cloudy
8:58 AM 70.7 °F 46.2 °F 42% 29.72 in 10.0 mi SSW 4.6 mph - N/A   Clear
9:58 AM 79.5 °F 46.0 °F 31% 29.72 in 10.0 mi ESE 8.1 mph - N/A   Clear
10:58 AM 81.1 °F 46.2 °F 29% 29.72 in 10.0 mi ESE 8.1 mph - N/A   Clear
11:58 AM 85.6 °F 43.2 °F 22% 29.72 in 10.0 mi ESE 8.1 mph - N/A   Clear
12:58 PM 85.8 °F 43.9 °F 23% 29.70 in 10.0 mi Variable 3.5 mph - N/A   Clear
1:58 PM 88.0 °F 42.4 °F 20% 29.68 in 10.0 mi NNE 4.6 mph - N/A   Scattered Clouds
2:58 PM 88.7 °F 42.1 °F 20% 29.65 in 10.0 mi West 8.1 mph - N/A   Partly Cloudy
3:58 PM 90.1 °F 41.9 °F 19% 29.62 in 10.0 mi NNW 4.6 mph - N/A   Scattered Clouds
4:58 PM 93.0 °F 37.8 °F 14% 29.58 in 10.0 mi WNW 4.6 mph - N/A   Scattered Clouds
5:58 PM 93.6 °F 36.5 °F 14% 29.58 in 10.0 mi WNW 9.2 mph - N/A   Scattered Clouds
6:58 PM 91.6 °F 38.3 °F 15% 29.59 in 10.0 mi NW 11.5 mph - N/A Thunderstorm Mostly Cloudy
7:19 PM 89.6 °F 35.6 °F 15% 29.68 in 10.0 mi WNW 24.2 mph - N/A Rain , Thunderstorm Light Thunderstorms and Rain
7:46 PM 82.4 °F 46.4 °F 28% 29.70 in 10.0 mi WNW 24.2 mph 32.2 mph N/A   Mostly Cloudy
7:58 PM 82.6 °F 42.4 °F 24% 29.63 in 10.0 mi NW 20.7 mph 29.9 mph N/A   Mostly Cloudy
8:05 PM 84.2 °F 39.2 °F 20% 29.71 in 10.0 mi West 12.7 mph 29.9 mph N/A   Mostly Cloudy
8:58 PM 81.5 °F 43.2 °F 26% 29.69 in 10.0 mi SSW 3.5 mph - N/A   Mostly Cloudy
9:58 PM 76.6 °F 45.3 °F 33% 29.68 in 10.0 mi West 2.3 mph - N/A   Partly Cloudy
10:58 PM 71.1 °F 46.8 °F 42% 29.70 in 10.0 mi SSW 8.1 mph - N/A   Partly Cloudy
11:58 PM 72.3 °F 45.9 °F 39% 29.69 in 10.0 mi WSW 4.6 mph - N/A   Mostly Cloudy